Terminal Aerodrome Forecast
Issued by NWS

Home | Current Version | Previous Version | Graphics & Text | Print | Product List | Glossary On
Versions: 1 2 3 4 5 6 7 8 9 10 11 12 13 14 15 16
000
FTUS43 KBIS 031000 AAC
TAFJMS
TAF AMD
KJMS 031007Z 0310/0406 33025G32KT P6SM SCT020 OVC040
     FM031100 32026G32KT P6SM BKN020
     FM031500 32024G30KT P6SM SCT015 BKN035=

USA.gov is the U.S. government's official web portal to all federal, state and local government web resources and services.